Location: Forli
(44.2227°N, 12.0407°E)
Time: 23:40:41
(UTC+02:00)

PCSat - Pass Details

Date: 22 April 2026
Orbit: 781 x 790 km, 67.1° (Epoch: 19 May)

Event Time Altitude Azimuth Distance (km) Brightness Sun altitude
Rises 00:55:39 0° 314° (NW) 3,292 13.4 -33.6°
Reaches altitude 10° 00:58:48 10° 296° (WNW) 2,357 12.3 -33.6°
Enters shadow 00:59:52 13° 286° (WNW) 2,120 11.9 -33.6°
